| time (UTC) | temp F | wind direction | speed MPH | gust MPH | rain 1hr in | rain 24hr in | rain mn in | humidity % | barometer mb |
| 20260506062005 | 55 | 224 | 2.0 | 3.0 | 0.00 | 0.31 | 0.07 | 86 | 1005.2 |
| 20260506061506 | 55 | 306 | 2.0 | 3.0 | 0.00 | 0.31 | 0.07 | 86 | 1005.2 |
| 20260506061006 | 54 | 112 | 1.0 | 2.0 | 0.00 | 0.31 | 0.07 | 87 | 1005.3 |
| 20260506050505 | 52 | 211 | 2.0 | 3.0 | 0.00 | 0.31 | 0.07 | 90 | 1005.3 |
| 20260506045005 | 52 | 225 | 0.0 | 3.0 | 0.00 | 0.31 | 0.07 | 90 | 1005.2 |
| 20260506044505 | 52 | 221 | 1.0 | 3.0 | 0.00 | 0.31 | 0.07 | 91 | 1005.1 |
| 20260506044005 | 51 | 219 | 1.0 | 3.0 | 0.00 | 0.31 | 0.07 | 90 | 1005.2 |
| 20260506043505 | 51 | 220 | 2.0 | 3.0 | 0.00 | 0.31 | 0.07 | 90 | 1005.2 |
| 20260506043006 | 51 | 205 | 1.0 | 2.0 | 0.00 | 0.31 | 0.07 | 90 | 1005.2 |
| 20260506042505 | 51 | 209 | 2.0 | 3.0 | 0.00 | 0.31 | 0.07 | 90 | 1005.3 |
| 20260506042005 | 51 | 209 | 1.0 | 3.0 | 0.00 | 0.31 | 0.07 | 90 | 1005.3 |
| 20260506041505 | 51 | 269 | 0.0 | 2.0 | 0.00 | 0.31 | 0.07 | 90 | 1005.2 |
| 20260506041005 | 52 | 204 | 1.0 | 5.0 | 0.00 | 0.31 | 0.07 | 90 | 1005.3 |
| 20260506040505 | 52 | 219 | 2.0 | 7.0 | 0.00 | 0.31 | 0.07 | 90 | 1005.3 |
| 20260506040006 | 51 | 217 | 2.0 | 5.0 | 0.00 | 0.31 | 0.07 | 90 | 1005.3 |
| 20260506035505 | 52 | 255 | 2.0 | 7.0 | 0.00 | 0.31 | 0.07 | 90 | 1005.3 |
| 20260506035005 | 52 | 216 | 1.0 | 2.0 | 0.00 | 0.31 | 0.07 | 90 | 1005.3 |
| 20260506034505 | 52 | 217 | 1.0 | 3.0 | 0.00 | 0.31 | 0.07 | 90 | 1005.3 |
| 20260506034006 | 52 | 223 | 1.0 | 3.0 | 0.00 | 0.31 | 0.07 | 90 | 1005.3 |
| 20260506033505 | 52 | 239 | 1.0 | 3.0 | 0.00 | 0.31 | 0.07 | 90 | 1005.4 |
| 20260506033006 | 52 | 229 | 3.0 | 7.0 | 0.00 | 0.31 | 0.07 | 91 | 1005.5 |
| 20260506032006 | 52 | 209 | 2.0 | 3.0 | 0.00 | 0.31 | 0.07 | 91 | 1005.5 |
| 20260506031505 | 52 | 226 | 2.0 | 5.0 | 0.00 | 0.31 | 0.07 | 91 | 1005.5 |
| 20260506031005 | 51 | 199 | 1.0 | 3.0 | 0.00 | 0.31 | 0.07 | 91 | 1005.6 |
| 20260506030506 | 51 | 199 | 2.0 | 3.0 | 0.00 | 0.31 | 0.07 | 91 | 1005.6 |
| 20260506030006 | 51 | 204 | 2.0 | 3.0 | 0.00 | 0.31 | 0.07 | 91 | 1005.5 |
| 20260506025506 | 51 | 226 | 1.0 | 3.0 | 0.00 | 0.31 | 0.07 | 91 | 1005.7 |
| 20260506025006 | 51 | 207 | 0.0 | 2.0 | 0.00 | 0.31 | 0.07 | 90 | 1005.6 |
| 20260506024506 | 51 | 207 | 1.0 | 3.0 | 0.00 | 0.31 | 0.07 | 91 | 1005.7 |
| 20260506024005 | 51 | 209 | 1.0 | 3.0 | 0.00 | 0.31 | 0.07 | 90 | 1005.7 |
| 20260506023505 | 51 | 204 | 1.0 | 3.0 | 0.00 | 0.31 | 0.07 | 90 | 1005.7 |
| 20260506023007 | 51 | 217 | 2.0 | 3.0 | 0.00 | 0.31 | 0.07 | 90 | 1005.7 |
| 20260506022505 | 51 | 218 | 1.0 | 3.0 | 0.00 | 0.31 | 0.07 | 90 | 1005.6 |
| 20260506022005 | 51 | 217 | 1.0 | 3.0 | 0.00 | 0.31 | 0.07 | 90 | 1005.7 |
| 20260506021505 | 51 | 224 | 2.0 | 5.0 | 0.00 | 0.31 | 0.07 | 90 | 1005.7 |
| 20260506021006 | 51 | 203 | 3.0 | 3.0 | 0.00 | 0.31 | 0.07 | 90 | 1005.7 |
| 20260506020505 | 51 | 223 | 1.0 | 3.0 | 0.00 | 0.31 | 0.07 | 90 | 1005.7 |
| 20260506020006 | 51 | 216 | 2.0 | 3.0 | 0.00 | 0.31 | 0.07 | 90 | 1005.7 |
| 20260506015505 | 51 | 205 | 0.0 | 2.0 | 0.00 | 0.31 | 0.07 | 90 | 1005.7 |
| 20260506015006 | 51 | 205 | 1.0 | 2.0 | 0.00 | 0.31 | 0.07 | 90 | 1005.7 |
| 20260506014005 | 51 | 219 | 0.0 | 2.0 | 0.00 | 0.31 | 0.07 | 90 | 1005.8 |
| 20260506012505 | 52 | 226 | 1.0 | 3.0 | 0.00 | 0.31 | 0.07 | 90 | 1005.9 |
| 20260506012005 | 52 | 223 | 2.0 | 5.0 | 0.00 | 0.31 | 0.07 | 90 | 1005.9 |
| 20260506011505 | 52 | 251 | 2.0 | 7.0 | 0.00 | 0.31 | 0.07 | 90 | 1006.0 |
| 20260506011006 | 52 | 201 | 2.0 | 3.0 | 0.00 | 0.31 | 0.07 | 90 | 1006.0 |
| 20260506010005 | 52 | 207 | 2.0 | 3.0 | 0.00 | 0.31 | 0.07 | 90 | 1006.0 |
| 20260506005505 | 52 | 226 | 1.0 | 3.0 | 0.00 | 0.31 | 0.07 | 90 | 1006.0 |
| 20260506005005 | 53 | 215 | 2.0 | 6.0 | 0.00 | 0.31 | 0.07 | 90 | 1006.0 |
| 20260506004507 | 53 | 223 | 1.0 | 3.0 | 0.00 | 0.31 | 0.07 | 90 | 1006.0 |
| 20260506004004 | 53 | 193 | 2.0 | 3.0 | 0.01 | 0.31 | 0.07 | 90 | 1006.1 |
| 20260506003505 | 53 | 217 | 1.0 | 3.0 | 0.01 | 0.31 | 0.07 | 90 | 1006.2 |
| 20260506003005 | 53 | 210 | 2.0 | 5.0 | 0.01 | 0.31 | 0.07 | 90 | 1006.2 |
| 20260506002505 | 53 | 214 | 2.0 | 3.0 | 0.01 | 0.31 | 0.07 | 91 | 1006.2 |
| 20260506001505 | 53 | 205 | 1.0 | 2.0 | 0.01 | 0.31 | 0.07 | 91 | 1006.1 |
| 20260506001005 | 53 | 205 | 1.0 | 3.0 | 0.01 | 0.31 | 0.07 | 90 | 1006.3 |
| 20260506000006 | 53 | 313 | 1.0 | 2.0 | 0.01 | 0.31 | 0.07 | 90 | 1006.4 |
| 20260505235508 | 53 | 216 | 2.0 | 5.0 | 0.01 | 0.31 | 0.07 | 90 | 1006.3 |
| 20260505234505 | 53 | 257 | 2.0 | 3.0 | 0.01 | 0.31 | 0.07 | 91 | 1006.3 |
| 20260505234004 | 53 | 204 | 3.0 | 5.0 | 0.00 | 0.31 | 0.06 | 91 | 1006.5 |
| 20260505233505 | 53 | 223 | 3.0 | 6.0 | 0.00 | 0.31 | 0.06 | 91 | 1006.5 |
| 20260505232504 | 53 | 216 | 2.0 | 3.0 | 0.02 | 0.31 | 0.06 | 91 | 1006.5 |
| 20260505232005 | 53 | 209 | 2.0 | 3.0 | 0.02 | 0.31 | 0.06 | 91 | 1006.5 |
| 20260505231505 | 54 | 197 | 0.0 | 3.0 | 0.03 | 0.31 | 0.06 | 91 | 1006.5 |
| 20260505231006 | 54 | 205 | 1.0 | 3.0 | 0.04 | 0.31 | 0.06 | 91 | 1006.5 |
| 20260505230506 | 53 | 212 | 2.0 | 3.0 | 0.05 | 0.31 | 0.06 | 91 | 1006.6 |
| 20260505230007 | 54 | 215 | 2.0 | 3.0 | 0.06 | 0.31 | 0.06 | 91 | 1006.5 |
| 20260505225505 | 54 | 218 | 1.0 | 2.0 | 0.07 | 0.31 | 0.06 | 91 | 1006.5 |
| 20260505225005 | 54 | 218 | 1.0 | 2.0 | 0.08 | 0.31 | 0.06 | 91 | 1006.5 |
| 20260505224504 | 54 | 219 | 1.0 | 2.0 | 0.09 | 0.31 | 0.06 | 91 | 1006.6 |
| 20260505224005 | 54 | 219 | 1.0 | 2.0 | 0.09 | 0.31 | 0.06 | 91 | 1006.6 |
| 20260505223505 | 54 | 226 | 2.0 | 3.0 | 0.09 | 0.31 | 0.06 | 91 | 1006.6 |
| 20260505223005 | 54 | 265 | 1.0 | 3.0 | 0.09 | 0.30 | 0.06 | 91 | 1006.5 |
| 20260505222505 | 54 | 241 | 1.0 | 3.0 | 0.08 | 0.28 | 0.04 | 92 | 1006.6 |
| 20260505222005 | 54 | 223 | 1.0 | 2.0 | 0.08 | 0.28 | 0.04 | 92 | 1006.7 |
| 20260505221505 | 54 | 224 | 0.0 | 0.0 | 0.07 | 0.28 | 0.03 | 92 | 1006.6 |
| 20260505221005 | 54 | 224 | 0.0 | 0.0 | 0.06 | 0.27 | 0.02 | 92 | 1006.6 |
| 20260505215505 | 54 | 223 | 0.0 | 0.0 | 0.04 | 0.24 | 0.24 | 92 | 1006.5 |
| 20260505215005 | 54 | 224 | 0.0 | 0.0 | 0.02 | 0.23 | 0.23 | 92 | 1006.5 |
| 20260505214505 | 54 | 224 | 0.0 | 0.0 | 0.01 | 0.21 | 0.21 | 92 | 1006.6 |
| 20260505214005 | 54 | 224 | 0.0 | 0.0 | 0.01 | 0.21 | 0.21 | 92 | 1006.5 |
| 20260505213505 | 54 | 224 | 0.0 | 0.0 | 0.01 | 0.21 | 0.21 | 92 | 1006.6 |
| 20260505213005 | 54 | 224 | 0.0 | 0.0 | 0.01 | 0.21 | 0.21 | 92 | 1006.5 |
| 20260505212005 | 54 | 224 | 0.0 | 0.0 | 0.00 | 0.20 | 0.20 | 92 | 1006.5 |
| 20260505211505 | 54 | 224 | 0.0 | 0.0 | 0.00 | 0.20 | 0.20 | 92 | 1006.5 |
| 20260505211005 | 54 | 224 | 0.0 | 0.0 | 0.00 | 0.20 | 0.20 | 92 | 1006.6 |
| 20260505210505 | 54 | 224 | 0.0 | 0.0 | 0.00 | 0.20 | 0.20 | 92 | 1006.7 |
| 20260505205505 | 54 | 224 | 0.0 | 0.0 | 0.00 | 0.20 | 0.20 | 92 | 1006.7 |
| 20260505205005 | 54 | 224 | 0.0 | 0.0 | 0.00 | 0.20 | 0.20 | 92 | 1006.7 |
| 20260505204504 | 54 | 224 | 0.0 | 0.0 | 0.00 | 0.20 | 0.20 | 92 | 1006.7 |
| 20260505204005 | 54 | 224 | 0.0 | 0.0 | 0.00 | 0.20 | 0.20 | 92 | 1006.8 |
| 20260505203505 | 54 | 224 | 0.0 | 0.0 | 0.00 | 0.20 | 0.20 | 92 | 1006.8 |
| 20260505203005 | 54 | 224 | 0.0 | 2.0 | 0.00 | 0.20 | 0.20 | 92 | 1006.8 |
| 20260505202005 | 54 | 224 | 1.0 | 3.0 | 0.00 | 0.20 | 0.20 | 92 | 1006.8 |
| 20260505201504 | 54 | 224 | 0.0 | 2.0 | 0.00 | 0.20 | 0.20 | 92 | 1006.8 |
| 20260505201004 | 54 | 225 | 2.0 | 3.0 | 0.00 | 0.20 | 0.20 | 92 | 1006.7 |
| 20260505200505 | 54 | 234 | 1.0 | 2.0 | 0.00 | 0.20 | 0.20 | 92 | 1006.7 |
| 20260505200005 | 53 | 236 | 1.0 | 2.0 | 0.00 | 0.20 | 0.20 | 92 | 1006.6 |
| 20260505195504 | 53 | 236 | 0.0 | 2.0 | 0.00 | 0.20 | 0.20 | 91 | 1006.6 |
| 20260505195004 | 53 | 236 | 1.0 | 2.0 | 0.00 | 0.20 | 0.20 | 91 | 1006.6 |
| 20260505194504 | 53 | 235 | 0.0 | 2.0 | 0.00 | 0.20 | 0.20 | 91 | 1006.6 |
| 20260505194004 | 53 | 236 | 0.0 | 0.0 | 0.00 | 0.20 | 0.20 | 91 | 1006.5 |
| 20260505193504 | 53 | 236 | 0.0 | 0.0 | 0.00 | 0.20 | 0.20 | 91 | 1006.4 |
| 20260505193004 | 53 | 236 | 0.0 | 0.0 | 0.00 | 0.20 | 0.20 | 91 | 1006.3 |
| 20260505192504 | 53 | 236 | 0.0 | 0.0 | 0.00 | 0.20 | 0.20 | 91 | 1006.3 |
| 20260505192004 | 53 | 236 | 0.0 | 0.0 | 0.00 | 0.20 | 0.20 | 91 | 1006.4 |
| 20260505191504 | 54 | 236 | 0.0 | 0.0 | 0.00 | 0.20 | 0.20 | 91 | 1006.3 |
| 20260505191004 | 54 | 236 | 0.0 | 2.0 | 0.00 | 0.20 | 0.20 | 91 | 1006.4 |
| 20260505190504 | 54 | 236 | 0.0 | 1.0 | 0.00 | 0.20 | 0.20 | 91 | 1006.3 |
| 20260505190005 | 54 | 236 | 0.0 | 2.0 | 0.00 | 0.20 | 0.20 | 91 | 1006.3 |
| 20260505185504 | 54 | 236 | 0.0 | 0.0 | 0.00 | 0.20 | 0.20 | 91 | 1006.3 |
| 20260505185004 | 55 | 236 | 0.0 | 0.0 | 0.00 | 0.20 | 0.20 | 91 | 1006.3 |
| 20260505184504 | 55 | 236 | 0.0 | 0.0 | 0.00 | 0.20 | 0.20 | 91 | 1006.2 |
| 20260505184004 | 55 | 236 | 0.0 | 2.0 | 0.00 | 0.20 | 0.20 | 91 | 1006.3 |
| 20260505183504 | 55 | 236 | 1.0 | 2.0 | 0.00 | 0.20 | 0.20 | 91 | 1006.3 |
| 20260505183004 | 55 | 236 | 0.0 | 0.0 | 0.00 | 0.20 | 0.20 | 91 | 1006.1 |
| 20260505182504 | 55 | 236 | 0.0 | 0.0 | 0.00 | 0.20 | 0.20 | 91 | 1006.0 |
| 20260505181504 | 55 | 236 | 0.0 | 0.0 | 0.01 | 0.20 | 0.20 | 90 | 1006.1 |
| 20260505181004 | 56 | 236 | 0.0 | 0.0 | 0.01 | 0.20 | 0.20 | 90 | 1006.1 |
| 20260505180004 | 56 | 236 | 0.0 | 2.0 | 0.01 | 0.20 | 0.20 | 91 | 1006.1 |
| 20260505175503 | 56 | 236 | 1.0 | 1.0 | 0.01 | 0.20 | 0.20 | 90 | 1006.1 |
| 20260505174504 | 56 | 232 | 1.0 | 2.0 | 0.01 | 0.20 | 0.20 | 90 | 1006.1 |
| 20260505174004 | 56 | 232 | 1.0 | 1.0 | 0.01 | 0.20 | 0.20 | 90 | 1006.2 |
| 20260505173504 | 56 | 232 | 0.0 | 0.0 | 0.02 | 0.20 | 0.20 | 90 | 1006.2 |
| 20260505173004 | 56 | 232 | 0.0 | 2.0 | 0.02 | 0.20 | 0.20 | 90 | 1006.2 |
| 20260505172504 | 56 | 232 | 0.0 | 2.0 | 0.02 | 0.20 | 0.20 | 90 | 1006.2 |
| 20260505172004 | 56 | 232 | 0.0 | 1.0 | 0.02 | 0.20 | 0.20 | 90 | 1006.3 |
| 20260505171504 | 56 | 232 | 1.0 | 2.0 | 0.02 | 0.20 | 0.20 | 90 | 1006.4 |
| 20260505171004 | 56 | 232 | 1.0 | 2.0 | 0.02 | 0.20 | 0.20 | 90 | 1006.4 |
| 20260505170505 | 56 | 232 | 0.0 | 2.0 | 0.03 | 0.20 | 0.20 | 90 | 1006.4 |
| 20260505170004 | 56 | 232 | 0.0 | 2.0 | 0.03 | 0.20 | 0.20 | 90 | 1006.3 |
| 20260505165504 | 56 | 232 | 1.0 | 2.0 | 0.04 | 0.20 | 0.20 | 90 | 1006.3 |
| 20260505164504 | 56 | 232 | 0.0 | 2.0 | 0.06 | 0.20 | 0.20 | 90 | 1006.3 |
| 20260505164003 | 56 | 232 | 0.0 | 0.0 | 0.07 | 0.20 | 0.20 | 89 | 1006.3 |
| 20260505163004 | 56 | 232 | 0.0 | 1.0 | 0.07 | 0.19 | 0.19 | 89 | 1006.4 |
| 20260505162503 | 56 | 232 | 0.0 | 2.0 | 0.07 | 0.18 | 0.18 | 89 | 1006.5 |
| 20260505162004 | 56 | 232 | 0.0 | 1.0 | 0.07 | 0.18 | 0.18 | 88 | 1006.6 |
| 20260505161504 | 56 | 232 | 0.0 | 2.0 | 0.07 | 0.17 | 0.17 | 88 | 1006.6 |
| 20260505160504 | 56 | 232 | 0.0 | 2.0 | 0.08 | 0.17 | 0.17 | 88 | 1006.7 |
| 20260505153004 | 57 | 193 | 2.0 | 3.0 | 0.11 | 0.12 | 0.12 | 87 | 1006.9 |
| 20260505152504 | 58 | 237 | 2.0 | 3.0 | 0.11 | 0.11 | 0.11 | 87 | 1007.0 |
| 20260505152003 | 58 | 230 | 1.0 | 3.0 | 0.11 | 0.11 | 0.11 | 87 | 1007.0 |
| 20260505151003 | 58 | 241 | 1.0 | 3.0 | 0.09 | 0.09 | 0.09 | 86 | 1006.9 |
| 20260505150504 | 58 | 260 | 1.0 | 3.0 | 0.09 | 0.09 | 0.09 | 86 | 1006.9 |
| 20260505140504 | 63 | 319 | 3.0 | 9.0 | 0.00 | 0.00 | 0.00 | 70 | 1005.9 |
| 20260505125006 | 66 | 345 | 6.0 | 12.0 | 0.00 | 0.00 | 0.00 | 66 | 1006.5 |
| 20260505124506 | 66 | 325 | 2.0 | 6.0 | 0.00 | 0.00 | 0.00 | 67 | 1006.4 |
| 20260505124006 | 65 | 29 | 4.0 | 7.0 | 0.00 | 0.00 | 0.00 | 67 | 1006.5 |
| 20260505123505 | 65 | 317 | 2.0 | 7.0 | 0.00 | 0.00 | 0.00 | 67 | 1006.6 |
| 20260505123006 | 65 | 342 | 4.0 | 8.0 | 0.00 | 0.00 | 0.00 | 67 | 1006.6 |
| 20260505122506 | 65 | 346 | 5.0 | 10.0 | 0.00 | 0.00 | 0.00 | 66 | 1006.6 |
| 20260505122007 | 65 | 5 | 6.0 | 12.0 | 0.00 | 0.00 | 0.00 | 65 | 1006.7 |
| 20260505121006 | 66 | 7 | 6.0 | 12.0 | 0.00 | 0.00 | 0.00 | 65 | 1006.7 |
| 20260505120006 | 65 | 9 | 0.0 | 0.0 | 0.00 | 0.00 | 0.00 | 67 | 1006.6 |
| 20260505115506 | 64 | 354 | 0.0 | 0.0 | 0.00 | 0.00 | 0.00 | 67 | 1006.7 |
| 20260505115007 | 64 | 319 | 0.0 | 0.0 | 0.00 | 0.00 | 0.00 | 68 | 1006.8 |
| 20260505114506 | 64 | 354 | 0.0 | 0.0 | 0.00 | 0.00 | 0.00 | 68 | 1006.8 |
| 20260505113506 | 64 | 349 | 0.0 | 0.0 | 0.00 | 0.00 | 0.00 | 68 | 1007.0 |
| 20260505112506 | 64 | 324 | 0.0 | 0.0 | 0.00 | 0.00 | 0.00 | 68 | 1007.0 |
| 20260505111506 | 64 | 7 | 0.0 | 0.0 | 0.00 | 0.00 | 0.00 | 67 | 1007.2 |
| 20260505111006 | 65 | 15 | 0.0 | 0.0 | 0.00 | 0.00 | 0.00 | 66 | 1007.2 |
| 20260505110506 | 65 | 325 | 0.0 | 0.0 | 0.00 | 0.00 | 0.00 | 66 | 1007.2 |
| 20260505102006 | 67 | 290 | 0.0 | 0.0 | 0.00 | 0.00 | 0.00 | 63 | 1007.4 |
| 20260505101506 | 68 | 290 | 0.0 | 0.0 | 0.00 | 0.00 | 0.00 | 63 | 1007.4 |
| 20260505101006 | 68 | 36 | 0.0 | 0.0 | 0.00 | 0.00 | 0.00 | 64 | 1007.5 |
| 20260505100507 | 68 | 60 | 0.0 | 0.0 | 0.00 | 0.00 | 0.00 | 65 | 1007.5 |
| 20260505100005 | 67 | 113 | 0.0 | 0.0 | 0.00 | 0.00 | 0.00 | 64 | 1007.5 |
| 20260505095506 | 67 | 110 | 0.0 | 0.0 | 0.00 | 0.00 | 0.00 | 65 | 1007.6 |
| 20260505094506 | 66 | 23 | 0.0 | 0.0 | 0.00 | 0.00 | 0.00 | 66 | 1007.6 |
| 20260505093006 | 65 | 118 | 0.0 | 0.0 | 0.00 | 0.00 | 0.00 | 68 | 1007.8 |
| 20260505091506 | 64 | 140 | 0.0 | 0.0 | 0.00 | 0.00 | 0.00 | 69 | 1008.0 |
| 20260505091006 | 63 | 153 | 0.0 | 0.0 | 0.00 | 0.00 | 0.00 | 70 | 1008.1 |
| 20260505090507 | 63 | 137 | 0.0 | 0.0 | 0.00 | 0.00 | 0.00 | 71 | 1008.0 |
| 20260505090006 | 63 | 142 | 0.0 | 0.0 | 0.00 | 0.00 | 0.00 | 71 | 1008.1 |
| 20260505085506 | 63 | 80 | 0.0 | 0.0 | 0.00 | 0.00 | 0.00 | 71 | 1008.0 |
| 20260505085006 | 62 | 61 | 0.0 | 0.0 | 0.00 | 0.00 | 0.00 | 73 | 1008.1 |
| 20260505084006 | 61 | 49 | 0.0 | 0.0 | 0.00 | 0.00 | 0.00 | 74 | 1008.1 |
| 20260505083505 | 61 | 65 | 0.0 | 0.0 | 0.00 | 0.00 | 0.00 | 75 | 1008.1 |
| 20260505083006 | 60 | 153 | 0.0 | 0.0 | 0.00 | 0.00 | 0.00 | 73 | 1008.1 |
| 20260505082505 | 60 | 324 | 0.0 | 0.0 | 0.00 | 0.00 | 0.00 | 74 | 1008.1 |
| 20260505082005 | 60 | 324 | 0.0 | 0.0 | 0.00 | 0.00 | 0.00 | 76 | 1008.1 |
| 20260505081506 | 59 | 324 | 0.0 | 0.0 | 0.00 | 0.00 | 0.00 | 77 | 1008.2 |
| 20260505081006 | 59 | 323 | 0.0 | 0.0 | 0.00 | 0.00 | 0.00 | 78 | 1008.2 |
| 20260505080506 | 58 | 254 | 0.0 | 0.0 | 0.00 | 0.00 | 0.00 | 80 | 1008.2 |
| 20260505080005 | 58 | 254 | 0.0 | 0.0 | 0.00 | 0.00 | 0.00 | 80 | 1008.3 |
| 20260505075006 | 58 | 251 | 0.0 | 0.0 | 0.00 | 0.00 | 0.00 | 81 | 1008.4 |
| 20260505074506 | 58 | 250 | 0.0 | 0.0 | 0.00 | 0.00 | 0.00 | 83 | 1008.5 |
| 20260505073506 | 57 | 248 | 0.0 | 0.0 | 0.00 | 0.00 | 0.00 | 84 | 1008.6 |
| 20260505073006 | 57 | 248 | 0.0 | 0.0 | 0.00 | 0.00 | 0.00 | 84 | 1008.6 |
| 20260505072506 | 57 | 248 | 0.0 | 0.0 | 0.00 | 0.00 | 0.00 | 84 | 1008.7 |
| 20260505072006 | 57 | 248 | 0.0 | 0.0 | 0.00 | 0.00 | 0.00 | 84 | 1008.7 |
| 20260505071505 | 57 | 248 | 0.0 | 0.0 | 0.00 | 0.00 | 0.00 | 84 | 1008.8 |
| 20260505071006 | 57 | 248 | 0.0 | 0.0 | 0.00 | 0.00 | 0.00 | 83 | 1008.9 |
| 20260505070507 | 57 | 248 | 0.0 | 0.0 | 0.00 | 0.00 | 0.00 | 83 | 1008.8 |